Terug naar catalogus

UME 2

ISS-B

ActiefWetenschapLEO
NORAD 10674·PAYLOAD·🇯🇵 Japan

Gelanceerd Feb 16, 1978 vanaf Tanegashima Space Center

Loading…

Volgende Passages (komende 24 uur)

TLE

VersSource: Space-Track

Epoch: Sep 14, 2026, 11:07 UTC

1 10674U 78018A   26257.46358052 -.00000058  00000-0 -13013-4 0  9994
2 10674  69.3615  71.2530 0163814   6.3271  12.6709 13.43717134382631

Volg UME 2 in realtime met AllMySat

Download on the App Store